• In Uzbekistan
  • List of Countries
  • For 7 days
  • Water Temperature
  • Satellite Maps
  • Weather Map
  • Weather Widgets
  • user-avatar
    Login

    Hourly Weather Hawalii

    Today, 16 December, Saturday

    Time Temperature Precipitation Wind Pressure Humidity
    00:00 +14°C° 0 mm 3 mps 761 mmHg 41%
    01:00 +13°C° 0 mm 3 mps 761 mmHg 39%
    02:00 +13°C° 0 mm 3 mps 761 mmHg 36%
    03:00 +12°C° 0 mm 4 mps 761 mmHg 42%
    04:00 +12°C° 0 mm 4 mps 761 mmHg 49%
    05:00 +12°C° 0 mm 4 mps 761 mmHg 57%
    06:00 +12°C° 0 mm 4 mps 762 mmHg 65%
    07:00 +13°C° 0 mm 4 mps 762 mmHg 65%
    08:00 +14°C° 0 mm 4 mps 763 mmHg 66%
    09:00 +15°C° 0 mm 5 mps 763 mmHg 62%
    10:00 +18°C° 0 mm 4 mps 763 mmHg 54%
    11:00 +19°C° 0 mm 4 mps 763 mmHg 47%
    12:00 +21°C° 0 mm 3 mps 762 mmHg 40%
    13:00 +21°C° 0 mm 4 mps 762 mmHg 39%
    14:00 +21°C° 0 mm 4 mps 762 mmHg 38%
    15:00 +22°C° 0 mm 4 mps 762 mmHg 37%
    16:00 +21°C° 0 mm 4 mps 762 mmHg 43%
    17:00 +20°C° 0 mm 3 mps 762 mmHg 49%
    18:00 +19°C° 0 mm 3 mps 763 mmHg 55%
    19:00 +18°C° 0 mm 2 mps 763 mmHg 58%
    20:00 +18°C° 0 mm 2 mps 763 mmHg 61%
    21:00 +17°C° 0 mm 2 mps 763 mmHg 65%
    22:00 +17°C° 0 mm 2 mps 764 mmHg 66%
    23:00 +17°C° 0 mm 2 mps 764 mmHg 66%

    Tomorrow, 17 December, Sunday

    Time Temperature Precipitation Wind Pressure Humidity
    00:00 +17°C° 0 mm 2 mps 764 mmHg 67%
    01:00 +17°C° 0 mm 3 mps 764 mmHg 66%
    02:00 +17°C° 0 mm 3 mps 764 mmHg 64%
    03:00 +17°C° 0 mm 4 mps 764 mmHg 63%
    04:00 +15°C° 0 mm 4 mps 764 mmHg 58%
    05:00 +15°C° 0 mm 4 mps 765 mmHg 53%
    06:00 +15°C° 0 mm 5 mps 765 mmHg 48%
    07:00 +16°C° 0 mm 5 mps 765 mmHg 42%
    08:00 +17°C° 0 mm 5 mps 765 mmHg 36%
    09:00 +19°C° 0 mm 5 mps 766 mmHg 31%
    10:00 +20°C° 0 mm 5 mps 766 mmHg 29%
    11:00 +21°C° 0 mm 5 mps 765 mmHg 27%
    12:00 +23°C° 0 mm 5 mps 765 mmHg 25%
    13:00 +23°C° 0 mm 4 mps 765 mmHg 25%
    14:00 +23°C° 0 mm 4 mps 765 mmHg 25%
    15:00 +25°C° 0 mm 4 mps 765 mmHg 26%
    16:00 +23°C° 0 mm 4 mps 765 mmHg 27%
    17:00 +22°C° 0 mm 4 mps 765 mmHg 29%
    18:00 +21°C° 0 mm 3 mps 765 mmHg 31%
    19:00 +20°C° 0 mm 4 mps 765 mmHg 32%
    20:00 +20°C° 0 mm 4 mps 766 mmHg 32%
    21:00 +19°C° 0 mm 4 mps 766 mmHg 33%
    22:00 +19°C° 0 mm 4 mps 766 mmHg 33%
    23:00 +17°C° 0 mm 5 mps 766 mmHg 34%

    Day after tomorrow, 18 December, Monday

    Time Temperature Precipitation Wind Pressure Humidity
    00:00 +17°C° 0 mm 5 mps 766 mmHg 34%
    01:00 +17°C° 0 mm 5 mps 766 mmHg 35%
    02:00 +16°C° 0 mm 5 mps 766 mmHg 35%
    03:00 +16°C° 0 mm 5 mps 766 mmHg 36%
    04:00 +16°C° 0 mm 5 mps 766 mmHg 36%
    05:00 +15°C° 0 mm 5 mps 767 mmHg 36%
    06:00 +15°C° 0 mm 4 mps 767 mmHg 37%
    07:00 +17°C° 0 mm 4 mps 767 mmHg 34%
    08:00 +18°C° 0 mm 4 mps 767 mmHg 32%
    09:00 +19°C° 0 mm 4 mps 768 mmHg 30%
    10:00 +20°C° 0 mm 4 mps 767 mmHg 28%
    11:00 +21°C° 0 mm 4 mps 767 mmHg 25%
    12:00 +22°C° 0 mm 4 mps 767 mmHg 23%
    13:00 +23°C° 0 mm 4 mps 766 mmHg 22%
    14:00 +23°C° 0 mm 4 mps 766 mmHg 22%
    15:00 +24°C° 0 mm 3 mps 765 mmHg 21%
    16:00 +22°C° 0 mm 3 mps 765 mmHg 22%
    17:00 +21°C° 0 mm 3 mps 766 mmHg 24%
    18:00 +20°C° 0 mm 3 mps 766 mmHg 25%
    19:00 +20°C° 0 mm 3 mps 766 mmHg 26%
    20:00 +19°C° 0 mm 3 mps 766 mmHg 27%
    21:00 +19°C° 0 mm 3 mps 767 mmHg 28%
    22:00 +18°C° 0 mm 3 mps 766 mmHg 29%
    23:00 +18°C° 0 mm 3 mps 766 mmHg 30%

    19 December, Tuesday

    Time Temperature Precipitation Wind Pressure Humidity
    00:00 +17°C° 0 mm 3 mps 766 mmHg 31%
    01:00 +17°C° 0 mm 3 mps 766 mmHg 32%
    02:00 +16°C° 0 mm 2 mps 766 mmHg 34%
    03:00 +16°C° 0 mm 2 mps 766 mmHg 35%
    04:00 +16°C° 0 mm 2 mps 766 mmHg 36%
    05:00 +16°C° 0 mm 3 mps 767 mmHg 36%
    06:00 +16°C° 0 mm 3 mps 767 mmHg 37%
    07:00 +17°C° 0 mm 3 mps 767 mmHg 35%
    08:00 +18°C° 0 mm 3 mps 768 mmHg 33%
    09:00 +19°C° 0 mm 3 mps 768 mmHg 30%
    10:00 +21°C° 0 mm 3 mps 768 mmHg 28%
    11:00 +22°C° 0 mm 3 mps 767 mmHg 26%
    12:00 +24°C° 0 mm 3 mps 767 mmHg 24%
    13:00 +24°C° 0 mm 2 mps 767 mmHg 23%
    14:00 +25°C° 0 mm 2 mps 766 mmHg 22%
    15:00 +25°C° 0 mm 1 mps 766 mmHg 21%
    16:00 +24°C° 0 mm 1 mps 766 mmHg 23%
    17:00 +22°C° 0 mm 1 mps 766 mmHg 26%
    18:00 +21°C° 0 mm 1 mps 766 mmHg 28%
    19:00 +21°C° 0 mm 1 mps 767 mmHg 29%
    20:00 +20°C° 0 mm 1 mps 767 mmHg 31%
    21:00 +19°C° 0 mm 1 mps 767 mmHg 32%
    22:00 +19°C° 0 mm 1 mps 767 mmHg 33%
    23:00 +19°C° 0 mm 1 mps 767 mmHg 34%

    20 December, Wednesday

    Time Temperature Precipitation Wind Pressure Humidity
    00:00 +18°C° 0 mm 1 mps 767 mmHg 34%
    01:00 +18°C° 0 mm 1 mps 767 mmHg 35%
    02:00 +16°C° 0 mm 1 mps 767 mmHg 36%
    03:00 +16°C° 0 mm 1 mps 766 mmHg 36%
    04:00 +16°C° 0 mm 1 mps 766 mmHg 36%
    05:00 +16°C° 0 mm 1 mps 767 mmHg 37%
    06:00 +15°C° 0 mm 1 mps 767 mmHg 37%
    07:00 +18°C° 0 mm 1 mps 767 mmHg 33%
    08:00 +20°C° 0 mm 1 mps 768 mmHg 29%
    09:00 +22°C° 0 mm 1 mps 768 mmHg 25%
    10:00 +23°C° 0 mm 1 mps 768 mmHg 24%
    11:00 +24°C° 0 mm 1 mps 768 mmHg 22%
    12:00 +25°C° 0 mm 1 mps 768 mmHg 20%
    13:00 +26°C° 0 mm 1 mps 767 mmHg 20%
    14:00 +26°C° 0 mm 1 mps 767 mmHg 20%
    15:00 +26°C° 0 mm 1 mps 767 mmHg 19%
    16:00 +25°C° 0 mm 1 mps 767 mmHg 22%
    17:00 +24°C° 0 mm 2 mps 767 mmHg 25%
    18:00 +23°C° 0 mm 2 mps 767 mmHg 28%
    19:00 +21°C° 0 mm 2 mps 767 mmHg 31%
    20:00 +21°C° 0 mm 2 mps 768 mmHg 33%
    21:00 +20°C° 0 mm 2 mps 768 mmHg 36%
    22:00 +20°C° 0 mm 2 mps 768 mmHg 37%
    23:00 +19°C° 0 mm 2 mps 767 mmHg 38%

    21 December, Thursday

    Time Temperature Precipitation Wind Pressure Humidity
    00:00 +19°C° 0 mm 2 mps 767 mmHg 40%
    01:00 +19°C° 0 mm 2 mps 767 mmHg 40%
    02:00 +18°C° 0 mm 2 mps 767 mmHg 40%
    03:00 +18°C° 0 mm 2 mps 767 mmHg 40%
    04:00 +18°C° 0 mm 2 mps 767 mmHg 39%
    05:00 +18°C° 0 mm 3 mps 767 mmHg 39%
    06:00 +18°C° 0 mm 3 mps 767 mmHg 38%
    07:00 +19°C° 0 mm 3 mps 767 mmHg 35%
    08:00 +20°C° 0 mm 3 mps 768 mmHg 32%
    09:00 +21°C° 0 mm 3 mps 768 mmHg 28%
    10:00 +22°C° 0 mm 3 mps 767 mmHg 26%
    11:00 +25°C° 0 mm 3 mps 767 mmHg 23%
    12:00 +26°C° 0 mm 2 mps 766 mmHg 21%
    13:00 +26°C° 0 mm 3 mps 766 mmHg 21%
    14:00 +26°C° 0 mm 3 mps 765 mmHg 21%
    15:00 +27°C° 0 mm 3 mps 765 mmHg 21%
    16:00 +25°C° 0 mm 4 mps 765 mmHg 27%
    17:00 +23°C° 0 mm 4 mps 765 mmHg 32%
    18:00 +22°C° 0 mm 5 mps 765 mmHg 38%
    19:00 +21°C° 0 mm 5 mps 765 mmHg 41%
    20:00 +21°C° 0 mm 5 mps 765 mmHg 45%
    21:00 +20°C° 0 mm 5 mps 765 mmHg 48%
    22:00 +20°C° 0 mm 5 mps 764 mmHg 48%
    23:00 +20°C° 0 mm 5 mps 764 mmHg 48%
    Show more